Weather History for Poplar Bluff, MO

Change the Weather History Date:

Tuesday, February 26, 2013

  Actual Average Record
Temperature  
Mean Temperature 44 °F -  
Max Temperature 48 °F 50 °F 76 °F (1932)
Min Temperature 39 °F 30 °F 9 °F (1934)
Degree Days  
Heating Degree Days 22    
Moisture  
Dew Point 39 °F    
Average Humidity 81    
Maximum Humidity 93    
Minimum Humidity 70    
Precipitation  
Precipitation 0.23 in - - ()
Sea Level Pressure  
Sea Level Pressure 29.43 in    
Wind  
Wind Speed 14 mph (SW)    
Max Wind Speed 25 mph    
Max Gust Speed 32 mph    
Visibility 9 miles    
Events Rain    
Averages and records for this station are not official NWS values.
T = Trace of Precipitation, MM = Missing Value Source: NWS Daily Summary

Daily Weather History Graph

Daily Weather History Graph

Search for Another Location

Airport:

Trip Planner

Search our weather history database for the weather conditions in past years. The results will help you decide how hot, cold, wet, or windy it might be!

Date:

Astronomy

Feb. 26, 2013 Rise Set
Actual Time 6:35 AM CST 5:53 PM CST
Civil Twilight 6:09 AM CST 6:19 PM CST
Nautical Twilight 5:39 AM CST 6:49 PM CST
Astronomical Twilight 5:09 AM CST 7:19 PM CST
Moon 7:06 PM CST (2/26) 6:41 AM CST (2/26)
Length of Visible Light 12h 09m
Length of Day
11h 17m
Full, 99% of the Moon is Illuminated
Feb 26
Full
Mar 4
Last Quarter
Mar 11
New
Mar 19
First Quarter
Mar 27
Full

Hourly Weather History & Observations

Time (CST) Temp. Windchill Dew Point Humidity Pressure Visibility Wind Dir Wind Speed Gust Speed Precip Events Conditions
12:01 AM 42.8 °F 35.1 °F 39.2 °F 87% 29.40 in 4.0 mi NE 16.1 mph 27.6 mph 0.04 in Rain Rain
12:37 AM 42.8 °F 36.2 °F 39.2 °F 87% 29.38 in 2.5 mi NE 12.7 mph 23.0 mph 0.08 in Rain Light Rain
12:53 AM 43.0 °F 35.4 °F 39.9 °F 89% 29.37 in 2.5 mi NE 16.1 mph 24.2 mph 0.10 in Rain Light Rain
1:22 AM 42.8 °F 35.4 °F 39.2 °F 87% 29.32 in 3.0 mi NE 15.0 mph - 0.02 in Rain Light Rain
1:53 AM 44.1 °F 37.4 °F 39.9 °F 85% 29.34 in 10.0 mi ENE 13.8 mph 20.7 mph 0.03 in Rain Light Rain
2:53 AM 44.1 °F 37.1 °F 41.0 °F 89% 29.29 in 10.0 mi NE 15.0 mph - 0.00 in   Overcast
3:53 AM 45.0 °F - 43.0 °F 93% 29.27 in 8.0 mi Calm Calm - N/A   Overcast
4:53 AM 48.0 °F - 44.1 °F 86% 29.29 in 10.0 mi SSW 18.4 mph - N/A   Overcast
5:02 AM 46.4 °F 37.9 °F 42.8 °F 87% 29.29 in 10.0 mi SSW 25.3 mph 29.9 mph N/A   Overcast
5:09 AM 46.4 °F 38.7 °F 42.8 °F 87% 29.29 in 10.0 mi SSW 20.7 mph 29.9 mph N/A   Overcast
6:02 AM 46.4 °F 39.5 °F 42.8 °F 87% 29.30 in 10.0 mi SSW 17.3 mph - N/A   Overcast
6:39 AM 46.4 °F 40.1 °F 42.8 °F 87% 29.32 in 10.0 mi SSW 15.0 mph - N/A   Overcast
6:53 AM 46.0 °F 39.0 °F 42.1 °F 86% 29.33 in 10.0 mi SSW 17.3 mph - N/A   Overcast
7:18 AM 46.4 °F 39.8 °F 41.0 °F 81% 29.33 in 10.0 mi SSW 16.1 mph - N/A   Overcast
7:53 AM 46.0 °F 39.6 °F 39.9 °F 79% 29.35 in 10.0 mi SSW 15.0 mph 21.9 mph N/A   Overcast
8:19 AM 46.4 °F 41.1 °F 39.2 °F 76% 29.36 in 10.0 mi SSW 11.5 mph - N/A   Overcast
8:51 AM 46.4 °F 43.5 °F 41.0 °F 81% 29.37 in 10.0 mi SSW 5.8 mph - N/A   Overcast
8:53 AM 46.0 °F 42.5 °F 41.0 °F 83% 29.38 in 10.0 mi SSW 6.9 mph - N/A   Overcast
9:22 AM 44.6 °F 40.7 °F 42.8 °F 93% 29.37 in 3.0 mi SW 6.9 mph - 0.01 in Rain Rain
9:29 AM 44.6 °F 38.8 °F 42.8 °F 93% 29.37 in 2.0 mi SSW 11.5 mph - 0.03 in Rain Light Rain
9:38 AM 46.4 °F 41.5 °F 42.8 °F 87% 29.37 in 10.0 mi SW 10.4 mph - 0.04 in Rain Light Rain
9:49 AM 46.4 °F 41.1 °F 42.8 °F 87% 29.37 in 10.0 mi SSW 11.5 mph - 0.04 in Rain Light Rain
9:53 AM 46.0 °F 41.0 °F 42.1 °F 86% 29.38 in 10.0 mi SSW 10.4 mph - 0.04 in   Overcast
10:09 AM 46.4 °F 39.8 °F 42.8 °F 87% 29.38 in 3.0 mi South 16.1 mph 20.7 mph 0.01 in Rain Rain
10:53 AM 46.0 °F 38.8 °F 41.0 °F 83% 29.39 in 9.0 mi SSW 18.4 mph 24.2 mph 0.03 in Rain Light Rain
11:00 AM 46.4 °F 38.7 °F 39.2 °F 76% 29.38 in 10.0 mi SSW 20.7 mph 28.8 mph 0.00 in Rain Light Rain
11:53 AM 45.0 °F 36.9 °F 39.0 °F 80% 29.40 in 9.0 mi SSW 20.7 mph 32.2 mph 0.00 in Rain Light Rain
12:16 PM 44.6 °F 38.4 °F 37.4 °F 76% 29.40 in 10.0 mi SW 12.7 mph - 0.02 in Rain Light Rain
12:53 PM 45.0 °F 38.5 °F 37.0 °F 74% 29.42 in 10.0 mi WSW 13.8 mph - 0.02 in   Overcast
1:53 PM 42.1 °F 34.9 °F 37.0 °F 82% 29.44 in 10.0 mi SW 13.8 mph 19.6 mph 0.00 in Rain Light Rain
2:23 PM 42.8 °F 35.8 °F 37.4 °F 81% 29.44 in 10.0 mi WSW 13.8 mph - 0.01 in   Overcast
2:35 PM 42.8 °F 36.2 °F 35.6 °F 76% 29.45 in 10.0 mi SW 12.7 mph - 0.01 in   Overcast
2:53 PM 43.0 °F 36.8 °F 36.0 °F 76% 29.47 in 10.0 mi WSW 11.5 mph - 0.01 in   Overcast
3:19 PM 42.8 °F 35.8 °F 35.6 °F 76% 29.48 in 10.0 mi WSW 13.8 mph - 0.00 in   Overcast
3:33 PM 42.8 °F 36.2 °F 35.6 °F 76% 29.49 in 10.0 mi WSW 12.7 mph 20.7 mph 0.00 in   Overcast
3:53 PM 43.0 °F 37.2 °F 35.1 °F 74% 29.50 in 10.0 mi WSW 10.4 mph - 0.00 in   Overcast
4:00 PM 42.8 °F 36.6 °F 35.6 °F 76% 29.50 in 10.0 mi West 11.5 mph - N/A   Overcast
4:53 PM 42.1 °F 35.7 °F 33.1 °F 70% 29.54 in 10.0 mi West 11.5 mph - N/A   Overcast
5:53 PM 41.0 °F 33.5 °F 33.1 °F 73% 29.58 in 10.0 mi West 13.8 mph 21.9 mph N/A   Overcast
6:53 PM 41.0 °F 33.5 °F 33.1 °F 73% 29.62 in 10.0 mi West 13.8 mph - N/A   Overcast
7:53 PM 39.9 °F 33.9 °F 32.0 °F 73% 29.65 in 10.0 mi West 9.2 mph - N/A   Overcast
8:53 PM 39.9 °F 32.9 °F 32.0 °F 73% 29.69 in 10.0 mi West 11.5 mph - N/A   Overcast
9:53 PM 39.9 °F 31.8 °F 32.0 °F 73% 29.72 in 10.0 mi West 15.0 mph 21.9 mph N/A   Overcast
10:53 PM 39.0 °F 32.3 °F 32.0 °F 76% 29.73 in 10.0 mi West 10.4 mph - N/A   Overcast
11:53 PM 39.0 °F 31.4 °F 30.9 °F 73% 29.75 in 10.0 mi West 12.7 mph - N/A   Overcast